Simultaneous Nadir Overpasses (SNOs) Predictions

Prediction of SNOs between LANDSAT-8 and METOP-A Satellite Orbit:

Table of predicted SNOs for the next 14.0 days since TLE Epoch: 2/22/2014
Index Date (LANDSAT-8) Time (LANDSAT-8) Lat,Lon (LANDSAT-8) SZA (LANDSAT-8 ) Date (METOP-A) Time (METOP-A) Lat,Lon (METOP-A) SZA (METOP-A ) Distance(km) Time Diff (sec)
1 02/24/2014 15:52:44 81.18, -17.84 92.21 02/24/2014 15:51:39 81.18, -17.77 92.20 1.22 65
2 02/24/2014 16:42:10 -81.19, 150.05 87.77 02/24/2014 16:42:18 -81.20, 150.24 87.74 3.17 8
3 02/27/2014 11:26:55 81.17, 48.49 91.16 02/27/2014 11:26:00 81.17, 48.36 91.13 2.42 55
4 02/27/2014 12:16:21 -81.19,-143.59 88.82 02/27/2014 12:16:39 -81.19,-143.59 88.81 0.08 18
5 03/02/2014 07:01:06 81.17, 114.94 90.11 03/02/2014 07:00:21 81.17, 114.80 90.08 2.52 45
6 03/02/2014 07:50:32 -81.19, -77.12 89.86 03/02/2014 07:51:00 -81.19, -77.11 89.85 0.26 28
7 03/05/2014 02:35:16 81.18,-178.50 89.06 03/05/2014 02:34:41 81.18,-178.45 89.06 0.83 35
8 03/05/2014 03:24:42 -81.20, -10.54 90.91 03/05/2014 03:25:21 -81.19, -10.70 90.91 2.72 39
9 03/07/2014 22:09:26 81.17,-112.19 87.97 03/07/2014 22:09:02 81.18,-112.14 87.97 1.13 24




NCC Satellite Simultaneous Nadir Overpasses (SNOs) Prediction Service
